This is the latest recevied weather packets stored in our database for station/object WB3IGR. If no packets are shown the sender has not sent any weather packets the latest 10 day(s).
| Time | Temp. | Humidity | Pressure | Rain* | Wind** | Luminosity | Snow |
|---|---|---|---|---|---|---|---|
| 1778084256 | 15.56° C | 99% | 1009.6 hPa | 0 mm | - | 68 W/m² | - |
| 1778083953 | 15.56° C | 99% | 1009.7 hPa | 0 mm | - | 82 W/m² | - |
| 1778083650 | 15.56° C | 99% | 1009.6 hPa | 0 mm | - | 144 W/m² | - |
| 1778083347 | 15.56° C | 99% | 1009.3 hPa | 0 mm | - | 205 W/m² | - |
| 1778083045 | 15.56° C | 99% | 1009.4 hPa | 0 mm | - | 182 W/m² | - |
| 1778082742 | 15.56° C | 99% | 1009.2 hPa | 0 mm | - | 238 W/m² | - |
| 1778081610 | 15.56° C | 99% | 1009.4 hPa | 3.05 mm | - | 219 W/m² | - |
| 1778081306 | 15.56° C | 99% | 1009.6 hPa | 3.56 mm | - | 157 W/m² | - |
| 1778081004 | 15.56° C | 99% | 1009.8 hPa | 4.83 mm | - | 157 W/m² | - |
| 1778080703 | 15.56° C | 99% | 1010.1 hPa | 4.32 mm | - | 132 W/m² | - |
| 1778080399 | 15.56° C | 99% | 1010.1 hPa | 1.27 mm | - | 90 W/m² | - |
| 1778080096 | 15.56° C | 99% | 1010.4 hPa | 1.78 mm | - | 67 W/m² | - |
| 1778079793 | 15.56° C | 99% | 1010.5 hPa | 3.05 mm | - | 65 W/m² | - |
| 1778079489 | 15.56° C | 99% | 1010.5 hPa | 1.27 mm | - | 56 W/m² | - |
| 1778079186 | 15.56° C | 99% | 1010.5 hPa | 1.78 mm | - | 79 W/m² | - |
| 1778078884 | 15.56° C | 99% | 1010.9 hPa | 3.05 mm | - | 64 W/m² | - |
| 1778078580 | 15.56° C | 99% | 1010.5 hPa | 1.27 mm | - | 59 W/m² | - |
| 1778078278 | 16.11° C | 99% | 1010.3 hPa | 1.78 mm | - | 71 W/m² | - |
| 1778077974 | 16.11° C | 99% | 1010.1 hPa | 1.78 mm | - | 108 W/m² | - |
| 1778077673 | 16.11° C | 99% | 1010.1 hPa | 1.78 mm | - | 181 W/m² | - |
| 1778077371 | 16.11° C | 99% | 1010.1 hPa | 1.27 mm | - | 330 W/m² | - |
| 1778077069 | 15.56° C | 99% | 1010 hPa | 1.27 mm | - | 199 W/m² | - |
| 1778076767 | 15.56° C | 99% | 1010.3 hPa | 1.78 mm | - | 173 W/m² | - |
| 1778076464 | 15.56° C | 99% | 1009.9 hPa | 3.05 mm | - | 101 W/m² | - |
| 1778076161 | 15.56° C | 99% | 1010 hPa | 3.05 mm | - | 54 W/m² | - |
* Rain latest hour (hover to see other rain measurements)
** Current wind speed in m/s (hover to see current wind gust speed)